Temperature
19 19 18 18 18 18 17 17 17 17 17 16 16 16 16 15 15 15 15 15 15 15 15 15 15 15 15 15 15 15 15 14 14 14 14 14 14 14 14 14 14 14 14
19 18 18 18 18 18 17 17 17 17 16 16 16 16 16 15 15 15 15 15 15 15 15 15 15 15 15 15 15 15 14 14 14 14 14 14 13 14 14 14 14 14 14
19 18 18 18 18 18 17 17 17 17 17 16 16 16 16 15 15 15 15 15 15 15 15 15 15 15 15 15 15 14 15 14 14 14 14 14 14 13 13 13 13 13 14
19 18 18 18 18 18 17 17 17 17 17 16 16 16 16 15 15 15 15 15 15 15 15 15 15 15 15 15 14 14 14 14 14 14 14 14 14 14 13 13 13 13 13
19 18 18 18 18 18 17 17 17 17 17 16 16 16 16 16 15 15 15 15 15 15 15 15 15 15 15 15 15 14 14 14 14 14 14 14 14 14 14 13 13 13 13
19 19 18 18 18 17 17 17 17 17 17 16 16 16 16 16 15 15 15 15 15 15 15 15 15 15 15 15 15 15 14 14 14 14 14 14 14 14 14 13 13 13 13
19 18 18 18 18 17 17 17 17 17 17 17 16 16 16 16 16 15 15 15 15 15 15 15 15 15 15 15 15 14 15 15 14 14 14 14 14 14 14 14 13 13 12
19 19 18 18 18 18 17 17 17 17 17 17 16 16 16 16 16 15 15 15 15 15 15 15 15 15 15 15 15 14 15 15 14 14 14 14 14 14 14 14 14 13 12
18 18 18 18 18 18 17 17 17 17 17 16 16 16 16 16 16 15 15 15 15 15 15 15 15 15 15 15 15 14 14 14 14 14 14 14 14 14 14 14 14 14 13
18 18 18 18 18 18 17 17 17 17 17 16 16 16 16 16 16 16 15 15 15 15 15 15 15 15 15 15 15 14 14 14 14 14 14 14 14 14 14 14 14 13 13
18 18 18 18 18 17 17 17 17 17 16 16 16 16 16 16 16 15 15 15 15 15 15 15 15 15 15 15 15 14 14 14 14 14 14 14 14 14 14 13 13 13 13
18 18 18 18 17 17 17 17 16 16 16 16 16 16 16 16 15 15 15 15 15 15 15 15 15 15 15 15 14 14 14 14 14 14 14 14 14 14 13 13 13 13 13
18 17 17 17 17 17 17 17 16 16 16 16 16 16 15 15 15 15 15 15 15 15 15 15 15 15 15 14 14 14 14 14 14 14 14 14 13 13 13 13 13 13 13
17 17 17 17 17 17 17 16 16 16 16 16 16 16 15 15 15 15 15 15 15 15 15 15 15 15 14 14 14 14 14 14 14 13 13 13 13 13 13 13 13 13 12
16 16 16 16 16 16 16 16 16 16 16 16 16 15 15 15 15 15 15 15 15 15 15 15 15 14 14 14 14 14 14 14 13 13 13 13 13 13 13 13 13 12 12
16 16 16 16 16 16 16 16 16 16 15 15 15 15 15 15 15 15 15 15 15 15 15 15 14 14 14 14 14 14 14 13 13 13 13 13 13 13 13 12 12 12 12
16 16 16 16 16 16 16 16 15 15 15 15 15 15 15 15 15 15 15 15 14 14 14 14 14 14 14 14 14 13 13 13 13 13 13 13 12 12 12 12 12 12 12
16 16 16 16 16 16 15 15 15 15 15 15 15 14 14 14 14 14 14 14 14 14 14 14 14 14 14 13 13 13 13 13 13 12 12 12 12 12 12 12 12 12 11
16 16 16 16 16 15 15 15 15 15 14 14 14 14 14 14 14 14 14 14 14 14 14 14 13 13 13 13 13 13 13 12 12 12 12 12 12 12 12 12 12 11 11
16 16 16 16 15 15 15 15 15 14 14 14 14 14 14 14 14 14 14 14 13 13 13 13 13 13 13 13 13 12 12 12 12 12 12 12 12 12 11 11 11 11 11
16 16 16 15 15 15 15 14 14 14 14 14 13 13 13 13 14 14 13 13 13 13 13 13 13 13 12 12 12 12 12 12 12 12 12 12 11 11 11 11 11 11 11
16 15 15 15 15 14 14 14 14 14 14 13 13 13 13 13 13 13 13 13 13 13 13 12 12 12 12 12 12 12 12 12 12 12 12 11 11 11 11 11 11 10 10
15 15 15 15 14 14 14 14 14 14 13 13 13 13 13 13 13 13 13 13 12 12 12 12 12 12 12 12 11 11 11 11 11 11 11 11 11 11 11 10 10 10 10
14 14 14 14 14 14 13 13 13 13 13 13 13 13 12 12 12 12 12 12 12 12 12 12 12 12 11 11 11 11 11 11 11 11 11 11 10 10 10 10 10 10 10
14 14 14 14 14 13 13 13 13 13 12 12 12 12 12 12 12 12 12 12 12 12 12 12 12 11 11 11 11 11 11 11 11 10 10 10 10 10 10 10 10 9 9
14 13 13 13 13 13 13 13 13 12 12 12 12 12 12 12 12 12 11 11 11 11 11 11 11 11 11 11 11 10 10 10 10 10 10 10 10 10 10 9 9 9 9
Wind_Speed
5 5 6 7 7 6 6 5 5 4 4 3 3 3 1 1 2 2 4 5 6 7 6 5 4 5 4 4 4 4 5 3 3 4 4 4 4 3 2 3 3 4 5
4 5 6 6 7 7 6 5 5 5 4 3 3 2 2 1 1 1 3 4 5 6 6 5 4 4 4 4 4 3 3 2 2 3 3 2 3 3 3 3 3 3 5
8 7 7 6 7 7 7 6 5 5 4 4 3 3 3 3 2 2 1 2 4 5 6 5 5 4 4 3 3 3 4 2 2 2 3 3 1 1 3 3 3 3 3
7 8 8 7 7 7 6 7 6 5 4 5 5 5 3 2 2 1 1 1 3 4 5 5 5 4 3 3 3 3 3 3 1 1 1 2 3 3 1 3 3 3 3
9 9 9 8 7 6 7 6 6 5 4 4 5 5 3 2 1 1 2 1 1 3 4 5 5 4 3 3 3 3 3 2 2 2 1 2 2 2 3 1 2 3 3
8 8 7 6 5 5 5 6 6 5 4 5 5 6 5 4 3 2 2 1 1 1 2 4 4 4 3 3 3 2 3 2 2 2 2 2 2 2 3 2 1 1 1
7 7 7 7 6 6 6 6 7 5 4 5 5 5 6 6 5 4 3 2 1 1 1 3 3 3 3 3 3 2 2 2 3 2 2 2 2 2 3 3 2 1 1
7 8 9 8 8 7 7 7 7 6 5 5 4 4 5 4 4 4 4 4 3 3 3 3 3 4 4 4 3 2 2 2 3 2 2 2 1 2 3 4 4 3 1
7 8 8 8 7 7 7 8 8 6 5 5 5 4 4 4 4 4 4 3 3 3 3 3 3 3 3 4 4 2 2 2 2 2 2 2 1 1 1 2 4 5 3
7 7 7 7 7 7 6 6 6 6 5 5 5 5 5 5 5 4 4 4 3 3 3 3 3 3 3 3 3 2 2 3 2 2 2 1 1 1 1 2 2 3 4
8 7 7 6 6 5 5 5 5 4 4 5 5 5 4 4 4 4 4 4 3 3 3 4 4 3 3 3 3 3 3 3 2 2 2 1 2 2 2 2 2 3 4
7 7 7 6 5 5 5 5 5 4 4 4 4 5 5 4 4 4 4 4 4 3 3 4 4 4 3 3 3 3 3 3 3 2 2 2 2 2 2 2 3 2 3
5 5 5 5 6 5 5 4 4 4 4 4 4 4 4 4 4 4 4 4 4 3 3 3 4 4 4 3 3 3 3 3 3 3 3 2 3 2 2 2 2 2 3
6 5 4 4 4 4 4 4 4 4 4 3 4 4 4 4 4 4 4 4 4 4 4 3 4 4 4 4 4 4 3 3 2 2 3 3 4 4 4 3 3 3 4
5 5 5 4 4 3 3 3 3 3 4 4 4 4 4 4 4 4 3 3 3 4 4 4 4 3 4 4 4 4 4 4 3 2 2 2 4 4 4 4 4 4 4
5 5 5 5 5 4 4 3 3 3 4 4 4 3 3 3 3 4 4 4 4 3 4 4 4 3 3 5 7 6 4 4 3 2 1 2 2 3 5 5 6 6 5
6 6 6 6 6 6 5 5 4 3 4 4 3 3 3 3 3 4 4 4 4 4 4 3 3 3 4 5 6 7 5 4 3 3 2 2 2 3 3 3 4 4 4
6 6 7 6 5 5 5 5 4 4 4 4 3 3 4 3 3 3 4 4 3 4 4 3 3 3 4 5 6 6 5 4 3 3 3 3 2 3 4 3 3 1 1
7 6 7 7 6 6 6 5 5 4 3 3 4 4 4 4 4 4 4 4 3 3 3 3 3 3 3 5 6 6 3 3 2 2 2 3 3 4 6 5 3 1 1
4 5 5 5 6 6 6 6 5 4 4 4 4 4 4 4 4 4 4 3 3 3 3 3 3 4 3 4 6 7 4 3 2 1 1 3 4 4 6 5 4 3 2
4 5 5 6 6 6 7 7 5 6 5 4 3 3 4 4 4 4 3 3 3 3 3 3 2 3 4 4 6 7 4 4 3 2 2 2 4 5 6 6 5 5 4
3 5 5 5 5 6 7 7 6 6 4 4 3 3 3 4 3 3 3 3 4 4 3 2 1 1 2 3 5 6 7 6 4 3 3 3 4 5 5 5 5 5 4
3 5 6 5 5 6 7 7 6 5 5 4 4 3 2 2 3 4 4 3 3 3 3 3 3 2 1 2 4 5 6 7 4 3 4 3 3 3 3 4 4 4 3
3 4 5 5 5 5 6 6 5 5 6 5 4 3 3 2 2 3 3 4 4 4 4 4 4 3 2 2 2 2 2 3 3 1 2 2 2 2 2 1 1 2 3
3 4 5 6 6 6 5 5 5 6 6 6 5 4 4 4 3 2 3 4 5 6 6 5 5 5 4 5 6 5 4 4 4 3 2 1 1 1 0 0 1 1 1
3 3 4 4 5 5 5 5 5 6 7 5 5 4 4 4 3 2 1 2 2 4 5 6 6 5 6 6 6 6 6 6 7 4 2 3 3 3 3 2 2 2 2
Wind_Direction
199 171 156 147 138 140 137 133 126 128 124 113 109 101 94 60 51 71 97 107 112 114 110 105 96 92 92 95 95 98 83 67 78 80 57 33 32 44 38 60 77 85 92
177 170 159 152 150 152 150 145 142 142 141 145 144 141 143 133 117 67 84 115 123 124 126 119 116 107 104 94 91 99 98 61 63 99 91 44 14 13 26 34 69 80 85
180 175 168 166 160 160 162 158 156 152 149 143 112 89 68 53 47 53 48 80 124 126 130 131 126 122 120 123 122 120 120 113 42 81 128 131 182 336 5 17 43 62 77
175 174 173 172 172 174 163 154 156 153 154 142 132 134 136 143 187 178 159 82 109 125 136 137 136 133 132 135 145 130 127 126 117 51 62 137 152 141 83 6 20 42 62
176 177 178 178 175 167 160 159 153 152 155 148 147 140 139 159 157 123 112 86 79 118 135 142 140 141 145 150 142 129 127 131 141 141 123 90 76 94 130 122 8 28 26
175 176 172 161 160 159 155 156 152 155 155 146 148 150 153 151 140 137 142 140 95 79 116 139 146 146 150 158 156 150 136 130 125 127 128 139 132 142 129 143 146 95 9
171 169 162 161 162 159 156 154 153 156 158 151 156 160 161 159 165 167 167 163 151 146 159 140 147 149 151 154 146 140 138 137 129 142 145 140 157 153 141 133 137 117 11
174 174 172 171 172 169 166 161 162 166 170 165 173 170 164 162 172 176 174 176 179 181 170 151 149 148 147 143 133 130 148 135 136 141 147 133 144 145 150 148 141 120 55
176 176 175 175 175 175 176 173 171 173 181 180 175 170 164 163 171 173 170 174 181 173 156 151 149 148 142 138 132 135 147 135 141 144 141 139 150 130 133 149 152 148 153
171 170 171 176 179 180 174 168 170 178 182 179 182 179 175 168 167 159 163 171 174 159 150 154 152 152 148 141 130 133 139 129 136 141 123 114 109 100 106 134 135 142 149
174 174 173 174 171 165 163 165 167 169 175 177 176 173 180 173 162 160 167 167 160 159 162 164 159 161 157 148 138 142 142 139 129 117 120 113 107 100 88 95 101 109 126
173 170 167 163 159 160 162 165 166 170 182 178 169 174 173 164 160 165 170 159 155 159 161 154 155 165 162 157 151 156 145 145 143 137 122 123 114 103 91 99 101 109 120
156 160 159 162 168 170 170 169 170 176 180 168 160 159 159 163 170 173 166 157 155 155 155 153 155 159 155 153 151 147 144 150 157 154 146 147 125 122 111 108 106 100 102
148 148 154 163 169 173 173 173 179 178 168 159 159 161 165 166 166 163 159 158 154 148 147 152 154 154 147 140 138 134 131 133 134 140 151 152 149 156 142 128 123 112 102
148 158 161 161 160 158 160 162 163 163 160 150 155 168 164 153 141 141 150 148 144 143 139 136 138 137 139 143 142 141 134 130 118 114 134 145 147 148 142 136 140 128 117
168 170 165 162 165 165 164 153 159 161 147 153 165 161 149 143 140 145 146 141 138 135 131 137 144 145 152 147 144 141 136 129 127 132 146 133 123 131 129 127 133 138 138
174 177 177 180 181 181 171 163 165 155 149 154 155 149 149 153 163 153 142 150 155 144 136 142 143 150 159 147 143 143 136 137 143 148 144 138 132 123 124 118 118 122 134
180 185 184 183 183 174 164 159 149 140 149 159 159 160 154 156 158 149 156 169 163 158 159 161 161 157 165 150 149 151 137 138 152 163 172 165 166 154 147 134 117 109 129
191 188 186 179 174 168 162 147 144 144 140 167 175 178 173 165 157 159 178 177 162 160 166 163 160 157 170 158 152 145 134 136 160 176 166 169 176 176 156 141 144 140 304
185 180 169 160 165 171 159 150 155 155 171 187 194 188 178 173 177 182 180 169 161 169 163 160 169 169 179 174 160 153 145 146 165 177 189 177 174 171 162 159 160 177 228
188 175 162 167 179 175 162 163 170 187 198 192 185 183 187 186 187 183 174 162 161 153 156 163 178 183 190 186 173 165 165 173 176 191 216 219 194 183 179 174 180 194 185
181 170 167 179 181 172 167 173 193 202 186 173 175 187 195 195 187 175 180 173 162 158 164 158 179 222 214 193 192 183 179 171 175 196 212 214 200 194 187 183 188 183 156
187 177 170 178 184 180 175 183 203 186 168 168 184 194 194 191 179 179 183 176 175 176 183 183 201 231 242 224 203 196 190 181 185 197 191 194 198 193 193 190 177 158 146
198 183 170 177 193 193 187 192 192 174 169 178 188 190 187 188 183 182 183 181 188 192 196 198 205 216 222 228 217 214 209 195 192 181 163 159 153 141 140 145 165 164 173
200 179 178 188 199 197 196 195 184 174 181 188 189 191 196 191 188 192 202 201 210 204 200 204 197 196 216 225 212 195 199 198 193 154 110 103 106 123 150 182 194 178 164
200 189 190 191 197 195 203 203 192 183 184 193 197 196 194 192 186 186 232 263 221 217 207 204 200 211 216 213 208 202 198 190 171 149 169 191 194 201 206 209 215 208 210
Height
1531 1532 1533 1534 1536 1537 1538 1538 1538 1539 1540 1540 1540 1541 1541 1542 1542 1542 1542 1542 1542 1542 1542 1542 1542 1542 1543 1543 1543 1544 1544 1544 1544 1544 1544 1545 1545 1545 1545 1545 1544 1544 1543
1529 1531 1532 1533 1534 1536 1537 1538 1538 1539 1539 1540 1540 1541 1541 1542 1542 1543 1543 1543 1543 1543 1543 1543 1543 1543 1543 1544 1544 1544 1545 1545 1545 1545 1545 1546 1547 1546 1546 1545 1545 1544 1545
1527 1529 1530 1532 1533 1534 1535 1536 1537 1538 1539 1540 1540 1541 1542 1542 1543 1543 1543 1543 1544 1544 1543 1543 1544 1544 1544 1544 1545 1545 1546 1546 1546 1546 1546 1546 1546 1547 1547 1546 1545 1545 1545
1525 1526 1528 1530 1531 1533 1534 1536 1537 1538 1539 1539 1540 1540 1541 1542 1542 1543 1543 1544 1544 1544 1544 1544 1544 1545 1545 1545 1546 1546 1546 1546 1546 1546 1546 1547 1546 1546 1547 1547 1546 1546 1546
1523 1524 1526 1528 1530 1532 1533 1535 1536 1537 1538 1539 1540 1540 1541 1542 1542 1543 1544 1544 1544 1545 1545 1545 1545 1545 1545 1546 1546 1546 1546 1547 1547 1546 1546 1546 1546 1546 1546 1546 1547 1547 1547
1521 1523 1525 1527 1528 1531 1532 1534 1535 1536 1537 1538 1539 1540 1541 1541 1542 1543 1543 1544 1544 1545 1545 1545 1545 1545 1546 1546 1546 1546 1546 1547 1546 1546 1546 1546 1546 1546 1546 1546 1547 1547 1548
1519 1521 1523 1525 1527 1529 1531 1532 1534 1535 1536 1537 1538 1539 1540 1541 1541 1542 1543 1543 1544 1544 1545 1545 1545 1546 1546 1546 1546 1546 1546 1546 1546 1546 1546 1546 1546 1546 1546 1546 1546 1547 1547
1516 1518 1521 1523 1525 1527 1529 1531 1532 1534 1535 1537 1538 1539 1539 1540 1541 1542 1542 1543 1543 1544 1544 1545 1545 1545 1546 1546 1546 1546 1546 1546 1546 1545 1545 1545 1545 1545 1545 1546 1546 1546 1547
1515 1517 1519 1522 1524 1526 1527 1529 1531 1532 1534 1535 1536 1537 1538 1539 1540 1541 1542 1542 1543 1543 1544 1544 1545 1545 1545 1545 1545 1545 1545 1545 1545 1545 1545 1545 1545 1545 1545 1545 1545 1546 1546
1513 1515 1518 1520 1522 1524 1526 1528 1530 1531 1532 1534 1535 1536 1537 1538 1539 1540 1540 1541 1542 1543 1543 1544 1544 1544 1544 1544 1544 1545 1545 1545 1545 1545 1545 1545 1544 1544 1544 1544 1544 1545 1545
1512 1514 1516 1518 1521 1523 1525 1526 1528 1529 1530 1532 1533 1534 1535 1537 1537 1538 1539 1540 1541 1542 1542 1543 1543 1543 1543 1543 1544 1544 1544 1544 1544 1544 1544 1544 1544 1544 1543 1544 1544 1544 1544
1511 1513 1515 1517 1519 1521 1523 1524 1526 1527 1528 1530 1531 1532 1534 1535 1536 1537 1538 1539 1540 1541 1541 1542 1542 1542 1542 1542 1543 1543 1543 1543 1543 1543 1543 1543 1543 1543 1543 1543 1543 1543 1544
1511 1513 1514 1516 1518 1519 1521 1523 1524 1525 1527 1528 1529 1530 1531 1533 1534 1535 1537 1538 1538 1539 1540 1540 1541 1541 1541 1541 1541 1542 1542 1542 1542 1542 1542 1542 1542 1542 1542 1543 1543 1543 1543
1510 1512 1514 1515 1517 1518 1520 1521 1522 1524 1525 1526 1527 1528 1529 1531 1532 1533 1535 1536 1537 1538 1538 1539 1540 1540 1540 1540 1540 1541 1541 1541 1541 1541 1541 1541 1541 1542 1542 1542 1542 1542 1542
1510 1511 1512 1514 1516 1517 1519 1520 1521 1522 1523 1524 1525 1526 1528 1529 1531 1531 1533 1534 1535 1536 1537 1538 1538 1539 1539 1539 1539 1539 1540 1540 1540 1540 1540 1540 1541 1541 1541 1541 1541 1541 1542
1508 1510 1511 1512 1514 1515 1517 1518 1519 1520 1522 1523 1524 1525 1526 1528 1529 1530 1531 1532 1533 1534 1535 1536 1536 1537 1537 1538 1538 1538 1538 1539 1539 1539 1539 1539 1540 1540 1540 1540 1540 1541 1541
1507 1508 1509 1511 1512 1513 1515 1516 1517 1519 1520 1521 1522 1523 1524 1525 1526 1528 1529 1530 1531 1532 1533 1534 1534 1535 1535 1536 1536 1537 1537 1537 1537 1538 1538 1538 1538 1539 1539 1539 1539 1539 1540
1505 1506 1508 1509 1510 1512 1513 1515 1516 1517 1518 1519 1520 1521 1522 1523 1524 1525 1526 1527 1529 1530 1531 1532 1532 1533 1534 1534 1535 1535 1536 1536 1536 1536 1536 1537 1537 1537 1538 1538 1538 1538 1538
1503 1504 1505 1507 1508 1510 1511 1513 1514 1515 1515 1516 1517 1519 1520 1521 1522 1523 1523 1525 1526 1527 1528 1529 1530 1531 1532 1532 1533 1533 1533 1534 1534 1535 1535 1535 1535 1536 1536 1536 1536 1536 1536
1501 1502 1503 1505 1506 1507 1509 1510 1511 1512 1513 1514 1515 1517 1518 1518 1519 1520 1521 1522 1523 1524 1525 1526 1527 1528 1529 1530 1530 1531 1531 1532 1532 1533 1533 1533 1533 1534 1534 1534 1534 1534 1534
1499 1500 1501 1502 1503 1504 1506 1507 1508 1509 1511 1512 1513 1514 1515 1516 1517 1517 1518 1519 1520 1521 1522 1523 1524 1525 1526 1527 1528 1528 1529 1529 1530 1530 1530 1531 1531 1532 1532 1532 1532 1532 1532
1496 1497 1498 1499 1500 1502 1503 1504 1505 1507 1509 1510 1510 1511 1512 1513 1513 1514 1515 1516 1517 1518 1519 1520 1520 1521 1522 1523 1524 1525 1526 1527 1527 1527 1528 1528 1529 1529 1529 1529 1529 1530 1529
1493 1495 1496 1497 1498 1499 1500 1501 1502 1504 1506 1507 1508 1508 1509 1510 1510 1511 1512 1513 1514 1514 1515 1516 1517 1517 1519 1520 1521 1522 1523 1523 1524 1524 1525 1525 1526 1526 1526 1526 1526 1527 1526
1491 1492 1493 1494 1495 1496 1497 1498 1500 1501 1502 1503 1504 1505 1506 1506 1507 1508 1508 1509 1510 1511 1512 1512 1513 1514 1515 1516 1517 1518 1519 1519 1520 1520 1521 1521 1522 1522 1522 1522 1523 1523 1523
1488 1489 1490 1491 1491 1492 1493 1495 1496 1498 1499 1500 1501 1502 1502 1503 1503 1504 1505 1505 1506 1507 1508 1509 1509 1510 1511 1512 1513 1514 1514 1515 1516 1517 1517 1517 1518 1518 1518 1518 1519 1519 1519
1484 1485 1486 1487 1488 1489 1490 1491 1493 1494 1495 1496 1497 1498 1499 1499 1500 1500 1501 1502 1503 1504 1504 1505 1506 1507 1508 1509 1510 1510 1511 1512 1512 1513 1512 1513 1513 1514 1514 1514 1515 1515 1515